| time (UTC) | temp F | wind direction | speed knots | gust knots | rain 1hr in | rain 24hr in | rain mn in | humidity % | barometer mb |
| 20260510143854 | 65 | 358 | 1.7 | 2.6 | 0.00 | 0.00 | 0.00 | 62 | 1019.5 |
| 20260510143351 | 65 | 354 | 1.7 | 5.2 | 0.00 | 0.00 | 0.00 | 62 | 1019.4 |
| 20260510142848 | 65 | 358 | 0.0 | 5.2 | 0.00 | 0.00 | 0.00 | 62 | 1019.6 |
| 20260510142344 | 65 | 0 | 0.9 | 6.1 | 0.00 | 0.00 | 0.00 | 63 | 1019.4 |
| 20260510141841 | 64 | 0 | 0.9 | 3.5 | 0.00 | 0.00 | 0.00 | 64 | 1019.2 |
| 20260510141339 | 64 | 2 | 2.6 | 7.8 | 0.00 | 0.00 | 0.00 | 64 | 1019.1 |
| 20260510140836 | 65 | 350 | 0.9 | 6.1 | 0.00 | 0.00 | 0.00 | 64 | 1018.9 |
| 20260510140332 | 64 | 355 | 0.9 | 3.5 | 0.00 | 0.00 | 0.00 | 65 | 1019.0 |
| 20260510135831 | 65 | 350 | 3.5 | 7.0 | 0.00 | 0.00 | 0.00 | 64 | 1018.7 |
| 20260510135327 | 65 | 344 | 1.7 | 3.5 | 0.00 | 0.00 | 0.00 | 64 | 1018.9 |
| 20260510134825 | 64 | 55 | 0.9 | 2.6 | 0.00 | 0.00 | 0.00 | 64 | 1018.8 |
| 20260510134322 | 64 | 22 | 1.7 | 5.2 | 0.00 | 0.00 | 0.00 | 64 | 1018.6 |
| 20260510133817 | 64 | 339 | 2.6 | 6.1 | 0.00 | 0.00 | 0.00 | 64 | 1018.8 |
| 20260510133314 | 64 | 8 | 1.7 | 6.1 | 0.00 | 0.00 | 0.00 | 64 | 1018.7 |
| 20260510132809 | 64 | 3 | 0.9 | 1.7 | 0.00 | 0.00 | 0.00 | 67 | 1018.5 |
| 20260510132308 | 63 | 355 | 0.9 | 3.5 | 0.00 | 0.00 | 0.00 | 67 | 1018.1 |
| 20260510131804 | 63 | 311 | 3.5 | 5.2 | 0.00 | 0.00 | 0.00 | 67 | 1018.4 |
| 20260510131302 | 63 | 355 | 1.7 | 6.1 | 0.00 | 0.00 | 0.00 | 67 | 1018.1 |
| 20260510130758 | 63 | 178 | 4.3 | 6.1 | 0.00 | 0.00 | 0.00 | 68 | 1018.1 |
| 20260510130255 | 63 | 353 | 1.7 | 3.5 | 0.00 | 0.00 | 0.00 | 69 | 1017.9 |
| 20260510125751 | 62 | 18 | 1.7 | 3.5 | 0.00 | 0.00 | 0.00 | 70 | 1018.0 |
| 20260510125247 | 61 | 66 | 0.0 | 1.7 | 0.00 | 0.00 | 0.00 | 72 | 1018.0 |
| 20260510124744 | 60 | 359 | 0.9 | 5.2 | 0.00 | 0.00 | 0.00 | 73 | 1017.8 |
| 20260510124242 | 60 | 354 | 0.0 | 1.7 | 0.00 | 0.00 | 0.00 | 74 | 1017.8 |
| 20260510123737 | 60 | 353 | 0.9 | 1.7 | 0.00 | 0.00 | 0.00 | 75 | 1017.6 |
| 20260510123234 | 60 | 28 | 0.9 | 0.9 | 0.00 | 0.00 | 0.00 | 75 | 1017.4 |
| 20260510122730 | 60 | 1 | 1.7 | 3.5 | 0.00 | 0.00 | 0.00 | 75 | 1017.4 |
| 20260510122226 | 60 | 11 | 0.0 | 3.5 | 0.00 | 0.00 | 0.00 | 75 | 1017.3 |
| 20260510121722 | 60 | 56 | 2.6 | 3.5 | 0.00 | 0.00 | 0.00 | 75 | 1017.2 |
| 20260510121220 | 60 | 356 | 0.0 | 1.7 | 0.00 | 0.00 | 0.00 | 77 | 1017.2 |
| 20260510120717 | 59 | 350 | 0.9 | 0.9 | 0.00 | 0.00 | 0.00 | 78 | 1017.1 |
| 20260510120214 | 59 | 77 | 0.9 | 1.7 | 0.00 | 0.00 | 0.00 | 78 | 1017.0 |
| 20260510115709 | 59 | 119 | 1.7 | 2.6 | 0.00 | 0.00 | 0.00 | 78 | 1017.0 |
| 20260510115208 | 59 | 351 | 0.0 | 0.9 | 0.00 | 0.00 | 0.00 | 78 | 1017.0 |
| 20260510114703 | 59 | 357 | 0.0 | 0.0 | 0.00 | 0.00 | 0.00 | 78 | 1017.0 |
| 20260510114200 | 59 | 357 | 0.0 | 0.9 | 0.00 | 0.00 | 0.00 | 78 | 1016.8 |
| 20260510113654 | 59 | 358 | 1.7 | 2.6 | 0.00 | 0.00 | 0.00 | 77 | 1017.0 |
| 20260510113152 | 59 | 359 | 0.0 | 0.9 | 0.00 | 0.00 | 0.00 | 77 | 1016.5 |
| 20260510112649 | 59 | 359 | 0.0 | 2.6 | 0.00 | 0.00 | 0.00 | 78 | 1016.5 |
| 20260510112146 | 58 | 351 | 0.0 | 0.0 | 0.00 | 0.00 | 0.00 | 77 | 1016.3 |
| 20260510111642 | 58 | 351 | 0.0 | 0.0 | 0.00 | 0.00 | 0.00 | 77 | 1016.1 |
| 20260510111138 | 58 | 351 | 0.0 | 0.0 | 0.00 | 0.00 | 0.00 | 77 | 1016.3 |
| 20260510110633 | 58 | 351 | 0.0 | 0.0 | 0.00 | 0.00 | 0.00 | 78 | 1016.3 |
| 20260510110131 | 57 | 351 | 0.0 | 0.0 | 0.00 | 0.00 | 0.00 | 79 | 1016.1 |
| 20260510105627 | 56 | 351 | 0.0 | 0.9 | 0.00 | 0.00 | 0.00 | 82 | 1016.0 |
| 20260510105126 | 56 | 351 | 0.0 | 0.9 | 0.00 | 0.00 | 0.00 | 85 | 1016.0 |
| 20260510104624 | 56 | 351 | 0.0 | 0.0 | 0.00 | 0.00 | 0.00 | 86 | 1016.1 |
| 20260510104120 | 56 | 351 | 0.0 | 0.0 | 0.00 | 0.00 | 0.00 | 86 | 1016.2 |
| 20260510103617 | 56 | 351 | 0.0 | 0.0 | 0.00 | 0.00 | 0.00 | 85 | 1016.2 |
| 20260510103113 | 56 | 351 | 0.0 | 0.0 | 0.00 | 0.00 | 0.00 | 85 | 1016.2 |
| 20260510102608 | 56 | 351 | 0.0 | 0.0 | 0.00 | 0.00 | 0.00 | 85 | 1016.2 |
| 20260510102105 | 56 | 351 | 0.0 | 0.0 | 0.00 | 0.00 | 0.00 | 85 | 1016.0 |
| 20260510101602 | 56 | 351 | 0.0 | 0.0 | 0.00 | 0.00 | 0.00 | 85 | 1016.1 |
| 20260510101101 | 57 | 351 | 0.0 | 0.0 | 0.00 | 0.00 | 0.00 | 85 | 1015.9 |
| 20260510100556 | 56 | 351 | 0.0 | 0.0 | 0.00 | 0.00 | 0.00 | 85 | 1015.5 |
| 20260510100054 | 56 | 351 | 0.0 | 0.0 | 0.00 | 0.00 | 0.00 | 85 | 1015.5 |
| 20260510095550 | 56 | 351 | 0.0 | 0.0 | 0.00 | 0.00 | 0.00 | 85 | 1015.5 |
| 20260510095049 | 56 | 351 | 0.0 | 0.0 | 0.00 | 0.00 | 0.00 | 85 | 1015.4 |
| 20260510094544 | 56 | 351 | 0.0 | 0.0 | 0.00 | 0.00 | 0.00 | 85 | 1015.6 |
| 20260510094040 | 56 | 351 | 0.0 | 0.0 | 0.00 | 0.00 | 0.00 | 85 | 1015.5 |
| 20260510093536 | 56 | 351 | 0.0 | 0.0 | 0.00 | 0.00 | 0.00 | 85 | 1015.4 |
| 20260510093033 | 56 | 351 | 0.0 | 0.0 | 0.00 | 0.00 | 0.00 | 84 | 1015.6 |
| 20260510092530 | 56 | 351 | 0.0 | 0.0 | 0.00 | 0.00 | 0.00 | 84 | 1015.1 |
| 20260510092029 | 57 | 351 | 0.0 | 0.0 | 0.00 | 0.00 | 0.00 | 83 | 1015.1 |
| 20260510091526 | 57 | 351 | 0.0 | 0.0 | 0.00 | 0.00 | 0.00 | 83 | 1015.1 |
| 20260510091022 | 57 | 351 | 0.0 | 0.0 | 0.00 | 0.00 | 0.00 | 83 | 1015.0 |
| 20260510090520 | 57 | 351 | 0.0 | 0.0 | 0.00 | 0.00 | 0.00 | 82 | 1015.0 |
| 20260510090015 | 57 | 351 | 0.0 | 0.0 | 0.00 | 0.00 | 0.00 | 82 | 1015.1 |
| 20260510085510 | 57 | 351 | 0.0 | 0.0 | 0.00 | 0.00 | 0.00 | 81 | 1015.1 |
| 20260510085006 | 58 | 351 | 0.0 | 0.0 | 0.00 | 0.00 | 0.00 | 82 | 1014.9 |
| 20260510084503 | 58 | 351 | 0.0 | 0.0 | 0.00 | 0.00 | 0.00 | 81 | 1014.9 |
| 20260510083959 | 58 | 351 | 0.0 | 0.0 | 0.00 | 0.00 | 0.00 | 80 | 1014.7 |
| 20260510083456 | 58 | 351 | 0.0 | 0.9 | 0.00 | 0.00 | 0.00 | 80 | 1014.6 |
| 20260510082951 | 58 | 351 | 0.0 | 0.9 | 0.00 | 0.00 | 0.00 | 80 | 1014.5 |
| 20260510082449 | 58 | 351 | 0.0 | 0.0 | 0.00 | 0.00 | 0.00 | 80 | 1014.3 |
| 20260510081949 | 58 | 351 | 0.0 | 0.9 | 0.00 | 0.00 | 0.00 | 80 | 1014.3 |
| 20260510081445 | 58 | 351 | 0.9 | 0.9 | 0.00 | 0.00 | 0.00 | 79 | 1014.5 |
| 20260510080941 | 58 | 351 | 0.0 | 0.0 | 0.00 | 0.00 | 0.00 | 79 | 1014.9 |
| 20260510080439 | 58 | 351 | 0.0 | 0.0 | 0.00 | 0.00 | 0.00 | 79 | 1015.2 |
| 20260510075937 | 58 | 351 | 0.0 | 0.9 | 0.00 | 0.00 | 0.00 | 79 | 1015.0 |
| 20260510075435 | 58 | 351 | 0.0 | 0.0 | 0.00 | 0.00 | 0.00 | 79 | 1015.2 |
| 20260510074931 | 58 | 351 | 0.0 | 0.0 | 0.00 | 0.00 | 0.00 | 79 | 1014.7 |
| 20260510074428 | 58 | 351 | 0.0 | 0.0 | 0.00 | 0.00 | 0.00 | 79 | 1014.9 |
| 20260510073925 | 57 | 351 | 0.0 | 0.0 | 0.00 | 0.00 | 0.00 | 79 | 1014.6 |
| 20260510073420 | 58 | 351 | 0.0 | 0.0 | 0.00 | 0.00 | 0.00 | 79 | 1014.5 |
| 20260510072917 | 58 | 351 | 0.0 | 0.0 | 0.00 | 0.00 | 0.00 | 78 | 1014.5 |
| 20260510072414 | 58 | 351 | 0.0 | 0.9 | 0.00 | 0.00 | 0.00 | 78 | 1014.4 |
| 20260510071909 | 58 | 351 | 0.0 | 0.0 | 0.00 | 0.00 | 0.00 | 77 | 1014.4 |
| 20260510071406 | 58 | 351 | 0.0 | 0.0 | 0.00 | 0.00 | 0.00 | 77 | 1014.5 |
| 20260510070905 | 58 | 351 | 0.0 | 0.0 | 0.00 | 0.00 | 0.00 | 76 | 1014.4 |
| 20260510070401 | 58 | 351 | 0.0 | 0.9 | 0.00 | 0.00 | 0.00 | 76 | 1014.4 |
| 20260510065856 | 58 | 351 | 0.0 | 0.0 | 0.00 | 0.00 | 0.00 | 76 | 1014.7 |
| 20260510065353 | 59 | 351 | 0.0 | 0.0 | 0.00 | 0.00 | 0.00 | 75 | 1014.4 |
| 20260510064850 | 59 | 351 | 0.0 | 0.0 | 0.00 | 0.00 | 0.00 | 74 | 1014.4 |
| 20260510064348 | 59 | 351 | 0.0 | 0.0 | 0.00 | 0.00 | 0.00 | 73 | 1014.4 |
| 20260510063843 | 60 | 351 | 0.0 | 0.0 | 0.00 | 0.00 | 0.00 | 72 | 1014.5 |
| 20260510063340 | 60 | 351 | 0.0 | 0.0 | 0.00 | 0.00 | 0.00 | 71 | 1014.5 |
| 20260510062837 | 61 | 351 | 0.0 | 0.0 | 0.00 | 0.00 | 0.00 | 70 | 1014.7 |
| 20260510062332 | 61 | 351 | 0.0 | 0.0 | 0.00 | 0.00 | 0.00 | 69 | 1014.7 |
| 20260510061828 | 62 | 351 | 0.0 | 0.0 | 0.00 | 0.00 | 0.00 | 68 | 1014.6 |
| 20260510061325 | 62 | 351 | 0.0 | 0.0 | 0.00 | 0.00 | 0.00 | 67 | 1014.6 |
| 20260510060821 | 62 | 351 | 0.0 | 0.0 | 0.00 | 0.00 | 0.00 | 67 | 1014.5 |
| 20260510060318 | 62 | 351 | 0.0 | 1.7 | 0.00 | 0.00 | 0.00 | 66 | 1014.7 |
| 20260510055815 | 59 | 353 | 0.9 | 1.7 | 0.00 | 0.00 | 0.00 | 73 | 1014.9 |
| 20260510055314 | 58 | 356 | 0.0 | 2.6 | 0.00 | 0.00 | 0.00 | 78 | 1014.4 |
| 20260510054813 | 58 | 13 | 0.9 | 0.9 | 0.00 | 0.00 | 0.00 | 79 | 1014.4 |
| 20260510054309 | 58 | 13 | 0.0 | 0.0 | 0.00 | 0.00 | 0.00 | 79 | 1014.2 |
| 20260510053810 | 59 | 13 | 0.0 | 0.0 | 0.00 | 0.00 | 0.00 | 78 | 1014.4 |
| 20260510053305 | 59 | 13 | 0.0 | 0.0 | 0.00 | 0.00 | 0.00 | 78 | 1014.3 |
| 20260510052802 | 59 | 13 | 0.0 | 0.0 | 0.00 | 0.00 | 0.00 | 77 | 1014.3 |
| 20260510052257 | 59 | 13 | 0.0 | 0.0 | 0.00 | 0.00 | 0.00 | 77 | 1014.4 |
| 20260510051754 | 59 | 13 | 0.0 | 0.9 | 0.00 | 0.00 | 0.00 | 76 | 1014.2 |
| 20260510051250 | 60 | 13 | 0.0 | 0.0 | 0.00 | 0.00 | 0.00 | 75 | 1014.2 |
| 20260510050747 | 60 | 13 | 0.0 | 0.0 | 0.00 | 0.00 | 0.00 | 75 | 1014.4 |
| 20260510050244 | 60 | 13 | 0.0 | 0.0 | 0.00 | 0.00 | 0.00 | 74 | 1014.2 |
| 20260510045742 | 60 | 13 | 0.0 | 0.0 | 0.00 | 0.01 | 0.01 | 74 | 1014.1 |
| 20260510045238 | 60 | 13 | 0.0 | 0.0 | 0.00 | 0.01 | 0.01 | 73 | 1014.0 |
| 20260510044735 | 60 | 13 | 0.0 | 0.0 | 0.00 | 0.01 | 0.01 | 72 | 1013.9 |
| 20260510044233 | 61 | 13 | 0.0 | 0.0 | 0.00 | 0.01 | 0.01 | 71 | 1014.2 |
| 20260510043727 | 61 | 13 | 0.0 | 0.0 | 0.00 | 0.01 | 0.01 | 71 | 1014.0 |
| 20260510043225 | 61 | 13 | 0.0 | 0.0 | 0.00 | 0.01 | 0.01 | 71 | 1014.1 |
| 20260510042722 | 61 | 13 | 0.0 | 0.0 | 0.00 | 0.01 | 0.01 | 71 | 1014.1 |
| 20260510042218 | 60 | 13 | 0.0 | 0.9 | 0.00 | 0.01 | 0.01 | 71 | 1014.2 |
| 20260510041715 | 60 | 13 | 0.0 | 0.0 | 0.00 | 0.01 | 0.01 | 71 | 1014.1 |
| 20260510041212 | 60 | 13 | 0.0 | 0.0 | 0.00 | 0.01 | 0.01 | 70 | 1013.7 |
| 20260510040709 | 60 | 13 | 0.0 | 0.0 | 0.00 | 0.01 | 0.01 | 70 | 1013.9 |
| 20260510040206 | 60 | 13 | 0.0 | 0.0 | 0.00 | 0.01 | 0.01 | 70 | 1013.7 |
| 20260510035701 | 60 | 13 | 0.0 | 0.0 | 0.00 | 0.01 | 0.01 | 70 | 1013.6 |
| 20260510035157 | 60 | 13 | 0.0 | 0.9 | 0.00 | 0.01 | 0.01 | 69 | 1013.7 |
| 20260510034653 | 60 | 357 | 0.0 | 0.0 | 0.00 | 0.01 | 0.01 | 69 | 1013.7 |
| 20260510034151 | 60 | 357 | 0.0 | 0.0 | 0.00 | 0.01 | 0.01 | 69 | 1013.6 |
| 20260510033647 | 60 | 356 | 0.0 | 0.0 | 0.00 | 0.01 | 0.01 | 67 | 1013.8 |
| 20260510033145 | 60 | 356 | 0.0 | 0.0 | 0.00 | 0.01 | 0.01 | 68 | 1013.6 |
| 20260510032641 | 61 | 356 | 0.0 | 0.0 | 0.00 | 0.01 | 0.01 | 68 | 1013.6 |
| 20260510032136 | 61 | 356 | 0.0 | 0.0 | 0.00 | 0.01 | 0.01 | 67 | 1013.5 |
| 20260510031631 | 61 | 357 | 0.0 | 0.0 | 0.00 | 0.01 | 0.01 | 67 | 1013.7 |
| 20260510031129 | 61 | 357 | 0.0 | 0.0 | 0.00 | 0.01 | 0.01 | 67 | 1013.5 |
| 20260510030623 | 61 | 356 | 0.0 | 0.0 | 0.00 | 0.01 | 0.01 | 66 | 1013.5 |
| 20260510030121 | 62 | 356 | 0.0 | 0.0 | 0.00 | 0.01 | 0.01 | 65 | 1013.2 |
| 20260510025618 | 62 | 356 | 0.0 | 0.0 | 0.00 | 0.01 | 0.01 | 64 | 1013.3 |
| 20260510025115 | 62 | 356 | 0.0 | 0.0 | 0.00 | 0.01 | 0.01 | 64 | 1013.1 |
| 20260510024612 | 62 | 357 | 0.0 | 0.0 | 0.00 | 0.01 | 0.01 | 63 | 1013.4 |
| 20260510024108 | 63 | 357 | 0.0 | 0.0 | 0.00 | 0.01 | 0.01 | 62 | 1012.9 |
| 20260510023604 | 63 | 357 | 0.0 | 0.0 | 0.00 | 0.01 | 0.01 | 61 | 1012.7 |
| 20260510023102 | 63 | 356 | 0.0 | 0.0 | 0.00 | 0.01 | 0.01 | 60 | 1012.5 |
| 20260510022601 | 63 | 357 | 0.0 | 0.0 | 0.00 | 0.01 | 0.01 | 60 | 1012.5 |
| 20260510022056 | 64 | 356 | 0.0 | 0.0 | 0.00 | 0.01 | 0.01 | 58 | 1012.6 |
| 20260510021552 | 64 | 356 | 0.0 | 0.0 | 0.00 | 0.01 | 0.01 | 57 | 1012.4 |
| 20260510021050 | 65 | 356 | 0.0 | 0.0 | 0.00 | 0.01 | 0.01 | 56 | 1012.3 |
| 20260510020544 | 65 | 357 | 0.0 | 0.0 | 0.00 | 0.01 | 0.01 | 56 | 1012.3 |
| 20260510020040 | 66 | 357 | 0.0 | 0.0 | 0.00 | 0.01 | 0.01 | 54 | 1012.3 |
| 20260510015536 | 66 | 357 | 0.0 | 0.0 | 0.00 | 0.01 | 0.01 | 53 | 1011.8 |
| 20260510015032 | 67 | 357 | 0.0 | 0.0 | 0.00 | 0.01 | 0.01 | 52 | 1011.9 |
| 20260510014529 | 67 | 357 | 0.0 | 0.0 | 0.00 | 0.01 | 0.01 | 52 | 1011.7 |
| 20260510014026 | 68 | 357 | 0.0 | 0.0 | 0.00 | 0.01 | 0.01 | 50 | 1011.6 |
| 20260510013520 | 69 | 357 | 0.0 | 0.0 | 0.00 | 0.01 | 0.01 | 50 | 1011.7 |
| 20260510013017 | 69 | 357 | 0.0 | 0.0 | 0.00 | 0.01 | 0.01 | 48 | 1011.5 |
| 20260510012516 | 70 | 357 | 0.0 | 0.0 | 0.00 | 0.01 | 0.01 | 47 | 1011.4 |
| 20260510012013 | 71 | 357 | 0.0 | 0.0 | 0.00 | 0.01 | 0.01 | 45 | 1011.5 |
| 20260510011507 | 72 | 357 | 0.0 | 0.0 | 0.00 | 0.01 | 0.01 | 43 | 1011.5 |
| 20260510011003 | 72 | 357 | 0.0 | 0.0 | 0.00 | 0.01 | 0.01 | 42 | 1011.4 |
| 20260510010500 | 73 | 357 | 0.0 | 0.0 | 0.00 | 0.01 | 0.01 | 41 | 1011.3 |
| 20260510005957 | 74 | 357 | 0.0 | 0.0 | 0.00 | 0.01 | 0.01 | 38 | 1011.3 |
| 20260510005453 | 74 | 357 | 0.0 | 0.0 | 0.00 | 0.01 | 0.01 | 37 | 1011.2 |
| 20260510004951 | 75 | 357 | 0.0 | 0.0 | 0.00 | 0.01 | 0.01 | 36 | 1011.1 |
| 20260510004447 | 75 | 357 | 0.0 | 0.0 | 0.00 | 0.01 | 0.01 | 36 | 1011.1 |
| 20260510003946 | 76 | 357 | 0.0 | 0.9 | 0.00 | 0.01 | 0.01 | 35 | 1011.0 |
| 20260510003442 | 76 | 351 | 0.9 | 1.7 | 0.00 | 0.01 | 0.01 | 35 | 1011.0 |
| 20260510002942 | 77 | 4 | 0.0 | 0.9 | 0.00 | 0.01 | 0.01 | 36 | 1010.8 |
| 20260510002439 | 77 | 13 | 0.0 | 0.0 | 0.00 | 0.01 | 0.01 | 35 | 1011.0 |
| 20260510001935 | 77 | 43 | 0.0 | 0.0 | 0.00 | 0.01 | 0.01 | 35 | 1011.0 |
| 20260510001433 | 77 | 43 | 0.9 | 0.9 | 0.00 | 0.01 | 0.01 | 33 | 1011.1 |
| 20260510000931 | 77 | 24 | 0.0 | 0.9 | 0.00 | 0.01 | 0.01 | 34 | 1011.1 |
| 20260510000426 | 77 | 22 | 0.0 | 0.9 | 0.00 | 0.01 | 0.01 | 34 | 1011.0 |
| 20260509235923 | 77 | 358 | 0.0 | 0.9 | 0.00 | 0.01 | 0.01 | 34 | 1011.2 |
| 20260509235420 | 78 | 1 | 0.0 | 0.9 | 0.00 | 0.01 | 0.01 | 34 | 1010.9 |
| 20260509234916 | 78 | 352 | 0.0 | 0.9 | 0.00 | 0.01 | 0.01 | 32 | 1011.0 |
| 20260509234413 | 78 | 8 | 0.0 | 1.7 | 0.00 | 0.01 | 0.01 | 32 | 1011.1 |
| 20260509233911 | 78 | 2 | 0.9 | 0.9 | 0.00 | 0.01 | 0.01 | 33 | 1011.1 |
| 20260509233409 | 79 | 358 | 0.0 | 1.7 | 0.00 | 0.01 | 0.01 | 34 | 1011.2 |
| 20260509232904 | 79 | 257 | 1.7 | 2.6 | 0.00 | 0.01 | 0.01 | 32 | 1010.9 |
| 20260509232403 | 78 | 26 | 0.0 | 1.7 | 0.00 | 0.01 | 0.01 | 32 | 1010.9 |
| 20260509231858 | 79 | 345 | 0.9 | 0.9 | 0.00 | 0.01 | 0.01 | 31 | 1011.1 |
| 20260509231355 | 79 | 358 | 0.0 | 0.0 | 0.00 | 0.01 | 0.01 | 30 | 1011.0 |
| 20260509230853 | 79 | 359 | 0.9 | 1.7 | 0.00 | 0.01 | 0.01 | 32 | 1011.0 |
| 20260509230350 | 79 | 22 | 0.0 | 0.0 | 0.00 | 0.01 | 0.01 | 31 | 1011.1 |
| 20260509225845 | 80 | 5 | 0.9 | 2.6 | 0.00 | 0.01 | 0.01 | 33 | 1011.0 |
| 20260509225342 | 80 | 355 | 1.7 | 2.6 | 0.00 | 0.01 | 0.01 | 32 | 1011.1 |
| 20260509224838 | 80 | 44 | 0.0 | 0.9 | 0.00 | 0.01 | 0.01 | 33 | 1010.9 |
| 20260509224334 | 80 | 15 | 0.0 | 1.7 | 0.00 | 0.01 | 0.01 | 31 | 1010.8 |
| 20260509223831 | 80 | 245 | 1.7 | 2.6 | 0.00 | 0.01 | 0.01 | 31 | 1010.9 |
| 20260509223328 | 80 | 350 | 0.9 | 1.7 | 0.00 | 0.01 | 0.01 | 31 | 1010.9 |
| 20260509222825 | 80 | 358 | 1.7 | 2.6 | 0.00 | 0.01 | 0.01 | 32 | 1011.0 |
| 20260509222320 | 80 | 345 | 0.9 | 0.9 | 0.00 | 0.01 | 0.01 | 31 | 1010.8 |
| 20260509221815 | 80 | 249 | 3.5 | 5.2 | 0.00 | 0.01 | 0.01 | 31 | 1011.2 |
| 20260509221313 | 81 | 2 | 0.0 | 2.6 | 0.00 | 0.01 | 0.01 | 34 | 1011.2 |
| 20260509220808 | 80 | 357 | 0.0 | 1.7 | 0.00 | 0.01 | 0.01 | 32 | 1011.0 |
| 20260509220304 | 81 | 356 | 0.9 | 2.6 | 0.00 | 0.01 | 0.01 | 31 | 1011.1 |
| 20260509215800 | 80 | 24 | 0.9 | 1.7 | 0.00 | 0.01 | 0.01 | 35 | 1010.9 |
| 20260509215257 | 81 | 2 | 0.9 | 1.7 | 0.00 | 0.01 | 0.01 | 32 | 1010.9 |
| 20260509214754 | 81 | 19 | 0.0 | 2.6 | 0.00 | 0.01 | 0.01 | 32 | 1010.9 |
| 20260509214251 | 81 | 8 | 0.0 | 3.5 | 0.00 | 0.01 | 0.01 | 31 | 1011.0 |
| 20260509213748 | 81 | 35 | 0.9 | 2.6 | 0.00 | 0.01 | 0.01 | 33 | 1011.0 |
| 20260509213243 | 81 | 359 | 0.9 | 6.1 | 0.00 | 0.01 | 0.01 | 31 | 1011.0 |
| 20260509212741 | 81 | 357 | 1.7 | 3.5 | 0.00 | 0.01 | 0.01 | 30 | 1011.0 |
| 20260509212238 | 82 | 358 | 0.9 | 1.7 | 0.00 | 0.01 | 0.01 | 28 | 1011.1 |
| 20260509211734 | 81 | 7 | 0.9 | 0.9 | 0.00 | 0.01 | 0.01 | 31 | 1011.0 |
| 20260509211231 | 81 | 359 | 0.9 | 0.9 | 0.00 | 0.01 | 0.01 | 31 | 1011.1 |
| 20260509210727 | 81 | 347 | 0.9 | 5.2 | 0.00 | 0.01 | 0.01 | 30 | 1011.1 |
| 20260509210225 | 81 | 1 | 0.0 | 2.6 | 0.00 | 0.01 | 0.01 | 30 | 1011.0 |
| 20260509205724 | 82 | 359 | 1.7 | 3.5 | 0.00 | 0.01 | 0.01 | 33 | 1011.3 |
| 20260509205224 | 82 | 10 | 0.9 | 2.6 | 0.00 | 0.01 | 0.01 | 32 | 1011.4 |
| 20260509204720 | 82 | 338 | 1.7 | 3.5 | 0.00 | 0.01 | 0.01 | 30 | 1011.3 |
| 20260509204217 | 83 | 22 | 0.0 | 3.5 | 0.00 | 0.01 | 0.01 | 29 | 1011.1 |
| 20260509203713 | 83 | 25 | 0.9 | 3.5 | 0.00 | 0.01 | 0.01 | 29 | 1011.2 |
| 20260509203211 | 83 | 4 | 0.9 | 2.6 | 0.00 | 0.01 | 0.01 | 29 | 1011.3 |
| 20260509202706 | 82 | 1 | 0.0 | 3.5 | 0.00 | 0.01 | 0.01 | 28 | 1011.4 |
| 20260509202201 | 82 | 226 | 2.6 | 2.6 | 0.00 | 0.01 | 0.01 | 27 | 1011.5 |
| 20260509201657 | 82 | 315 | 0.9 | 2.6 | 0.00 | 0.01 | 0.01 | 29 | 1011.5 |
| 20260509201154 | 83 | 341 | 1.7 | 2.6 | 0.00 | 0.01 | 0.01 | 29 | 1011.6 |
| 20260509200650 | 84 | 342 | 2.6 | 7.0 | 0.00 | 0.01 | 0.01 | 26 | 1011.7 |
| 20260509200145 | 84 | 353 | 1.7 | 2.6 | 0.00 | 0.01 | 0.01 | 27 | 1011.7 |
| 20260509195642 | 84 | 2 | 0.0 | 0.9 | 0.00 | 0.01 | 0.01 | 29 | 1011.9 |
| 20260509195137 | 84 | 20 | 2.6 | 3.5 | 0.00 | 0.01 | 0.01 | 30 | 1011.7 |
| 20260509194637 | 83 | 351 | 1.7 | 3.5 | 0.00 | 0.01 | 0.01 | 30 | 1011.7 |
| 20260509194134 | 84 | 339 | 1.7 | 8.7 | 0.00 | 0.01 | 0.01 | 29 | 1011.8 |
| 20260509193630 | 84 | 344 | 2.6 | 2.6 | 0.00 | 0.01 | 0.01 | 30 | 1012.0 |
| 20260509193126 | 83 | 337 | 2.6 | 3.5 | 0.00 | 0.01 | 0.01 | 28 | 1011.9 |
| 20260509192623 | 84 | 354 | 1.7 | 5.2 | 0.00 | 0.01 | 0.01 | 29 | 1011.9 |
| 20260509192118 | 84 | 37 | 1.7 | 2.6 | 0.00 | 0.01 | 0.01 | 31 | 1012.0 |
| 20260509191618 | 83 | 12 | 0.0 | 0.9 | 0.00 | 0.01 | 0.01 | 29 | 1011.9 |
| 20260509191115 | 83 | 331 | 1.7 | 1.7 | 0.00 | 0.01 | 0.01 | 32 | 1012.2 |
| 20260509190611 | 83 | 207 | 1.7 | 2.6 | 0.00 | 0.01 | 0.01 | 29 | 1012.0 |
| 20260509190109 | 82 | 43 | 0.9 | 2.6 | 0.00 | 0.01 | 0.01 | 30 | 1011.9 |
| 20260509185606 | 83 | 357 | 1.7 | 5.2 | 0.00 | 0.01 | 0.01 | 30 | 1012.0 |
| 20260509185102 | 83 | 7 | 0.9 | 2.6 | 0.00 | 0.01 | 0.01 | 32 | 1011.9 |
| 20260509184601 | 83 | 22 | 0.9 | 1.7 | 0.00 | 0.01 | 0.01 | 32 | 1012.3 |
| 20260509184057 | 83 | 342 | 0.9 | 3.5 | 0.00 | 0.01 | 0.01 | 33 | 1012.3 |
| 20260509183552 | 83 | 352 | 1.7 | 2.6 | 0.00 | 0.01 | 0.01 | 28 | 1011.8 |
| 20260509183048 | 83 | 18 | 0.0 | 3.5 | 0.00 | 0.01 | 0.01 | 28 | 1012.0 |
| 20260509182545 | 82 | 345 | 0.9 | 1.7 | 0.00 | 0.01 | 0.01 | 37 | 1012.2 |
| 20260509182042 | 82 | 292 | 1.7 | 2.6 | 0.00 | 0.01 | 0.01 | 32 | 1011.8 |
| 20260509181540 | 82 | 352 | 1.7 | 1.7 | 0.00 | 0.01 | 0.01 | 32 | 1011.8 |
| 20260509181037 | 82 | 4 | 1.7 | 2.6 | 0.00 | 0.01 | 0.01 | 31 | 1011.9 |
| 20260509180532 | 82 | 328 | 1.7 | 3.5 | 0.00 | 0.01 | 0.01 | 31 | 1011.9 |
| 20260509180030 | 82 | 4 | 0.0 | 1.7 | 0.00 | 0.01 | 0.01 | 33 | 1011.9 |
| 20260509175525 | 82 | 350 | 1.7 | 2.6 | 0.00 | 0.01 | 0.01 | 32 | 1012.2 |
| 20260509175022 | 82 | 354 | 0.9 | 1.7 | 0.00 | 0.01 | 0.01 | 32 | 1012.3 |
| 20260509174519 | 81 | 356 | 1.7 | 2.6 | 0.00 | 0.01 | 0.01 | 32 | 1012.3 |
| 20260509174014 | 82 | 348 | 1.7 | 3.5 | 0.00 | 0.01 | 0.01 | 35 | 1012.0 |
| 20260509173508 | 81 | 344 | 0.9 | 1.7 | 0.00 | 0.01 | 0.01 | 32 | 1012.2 |
| 20260509173005 | 81 | 359 | 0.9 | 5.2 | 0.00 | 0.01 | 0.01 | 34 | 1012.3 |
| 20260509172502 | 80 | 355 | 1.7 | 1.7 | 0.00 | 0.01 | 0.01 | 39 | 1012.5 |
| 20260509171958 | 81 | 20 | 1.7 | 6.1 | 0.00 | 0.01 | 0.01 | 37 | 1012.6 |
| 20260509171454 | 80 | 48 | 0.9 | 1.7 | 0.00 | 0.01 | 0.01 | 38 | 1012.6 |
| 20260509170951 | 81 | 356 | 0.9 | 2.6 | 0.00 | 0.01 | 0.01 | 36 | 1012.5 |
| 20260509170446 | 81 | 4 | 0.0 | 2.6 | 0.00 | 0.01 | 0.01 | 38 | 1012.7 |
| 20260509165942 | 80 | 352 | 0.9 | 3.5 | 0.00 | 0.01 | 0.01 | 37 | 1012.5 |
| 20260509165441 | 80 | 5 | 0.0 | 6.1 | 0.00 | 0.01 | 0.01 | 36 | 1012.5 |
| 20260509164937 | 80 | 16 | 0.9 | 2.6 | 0.00 | 0.01 | 0.01 | 39 | 1012.4 |
| 20260509164433 | 80 | 8 | 0.9 | 1.7 | 0.00 | 0.01 | 0.01 | 46 | 1012.6 |
| 20260509163929 | 80 | 357 | 1.7 | 1.7 | 0.00 | 0.01 | 0.01 | 39 | 1012.4 |
| 20260509163427 | 80 | 355 | 1.7 | 2.6 | 0.00 | 0.01 | 0.01 | 39 | 1012.4 |
| 20260509162925 | 80 | 6 | 1.7 | 3.5 | 0.00 | 0.01 | 0.01 | 37 | 1012.5 |
| 20260509162425 | 79 | 348 | 0.0 | 2.6 | 0.00 | 0.01 | 0.01 | 44 | 1012.5 |
| 20260509161920 | 79 | 2 | 0.9 | 6.1 | 0.00 | 0.01 | 0.01 | 40 | 1012.3 |
| 20260509161417 | 79 | 357 | 0.0 | 1.7 | 0.00 | 0.01 | 0.01 | 45 | 1012.3 |
| 20260509160912 | 79 | 3 | 0.9 | 2.6 | 0.00 | 0.01 | 0.01 | 40 | 1012.3 |
| 20260509160408 | 79 | 352 | 1.7 | 3.5 | 0.00 | 0.01 | 0.01 | 42 | 1012.4 |
| 20260509155903 | 79 | 162 | 3.5 | 3.5 | 0.00 | 0.01 | 0.01 | 38 | 1012.3 |
| 20260509155400 | 79 | 356 | 0.0 | 2.6 | 0.00 | 0.01 | 0.01 | 44 | 1012.3 |
| 20260509154857 | 79 | 7 | 0.9 | 1.7 | 0.00 | 0.01 | 0.01 | 41 | 1012.2 |
| 20260509154353 | 78 | 36 | 0.9 | 2.6 | 0.00 | 0.01 | 0.01 | 45 | 1012.2 |
| 20260509153850 | 78 | 1 | 0.0 | 1.7 | 0.00 | 0.01 | 0.01 | 44 | 1012.3 |
| 20260509153347 | 77 | 5 | 0.0 | 2.6 | 0.00 | 0.01 | 0.01 | 47 | 1012.2 |
| 20260509152844 | 76 | 2 | 0.9 | 1.7 | 0.00 | 0.01 | 0.01 | 50 | 1012.3 |
| 20260509152340 | 76 | 357 | 1.7 | 5.2 | 0.00 | 0.01 | 0.01 | 47 | 1012.2 |
| 20260509151837 | 76 | 359 | 2.6 | 2.6 | 0.00 | 0.01 | 0.01 | 49 | 1012.2 |
| 20260509151333 | 75 | 353 | 0.9 | 1.7 | 0.00 | 0.01 | 0.01 | 51 | 1012.3 |
| 20260509150832 | 75 | 10 | 0.0 | 2.6 | 0.00 | 0.01 | 0.01 | 53 | 1012.4 |
| 20260509150329 | 75 | 62 | 0.9 | 0.9 | 0.00 | 0.01 | 0.01 | 49 | 1012.3 |
| 20260509145826 | 74 | 5 | 1.7 | 1.7 | 0.00 | 0.01 | 0.01 | 52 | 1012.3 |
| 20260509145321 | 73 | 2 | 0.9 | 1.7 | 0.00 | 0.01 | 0.01 | 56 | 1012.4 |
| 20260509144818 | 73 | 3 | 0.9 | 2.6 | 0.00 | 0.01 | 0.01 | 56 | 1012.3 |
| 20260509144315 | 72 | 30 | 0.0 | 0.9 | 0.00 | 0.01 | 0.01 | 56 | 1012.2 |